Regional Weather Roundup
Issued by NWS

Home | Current Version | Previous Version | Text Only | Print | Product List | Glossary On
Versions: 1 2 3 4 5 6 7 8 9 10 11 12 13 14 15 16 17 18 19 20 21 22 23 24 25 26 27 28 29 30 31 32 33 34 35 36 37 38 39 40 41 42 43 44 45 46 47 48 49 50
000
ASUS44 KEWX 021703
RWRTX
SOUTH TEXAS REGIONAL WEATHER ROUNDUP
NATIONAL WEATHER SERVICE AUSTIN/SAN ANTONIO TX
1200 PM CDT SUN AUG 02 2015

NOTE: "FAIR" INDICATED FEW OR NO CLOUDS BELOW 12,000 FEET WITH NO
SIGNIFICANT WEATHER AND/OR OBSTRUCTIONS TO VISIBILITY.

* - THESE STATIONS ARE NOT NWS OR FAA STATIONS...AND ARE NOT SUBJECT
    TO NWS AND FAA QUALITY CONTROL.

TXZ171-172-183>190-021800-
TEXAS HILL COUNTRY AND EDWARDS PLATEAU

CITY           SKY/WX    TMP DP  RH WIND       PRES   REMARKS
JUNCTION       SUNNY     90  59  35 S5        30.00F
*LLANO         SUNNY     91  63  38 W8        30.02F HX  92
BURNET         SUNNY     90  60  36 S6        30.02S
*HORSESHOE BAY MOSUNNY   92  60  33 SE6       29.99S HX  92
*KERRVILLE     MOSUNNY   85  64  47 SE5       30.03S
*FREDERICKSBRG MOSUNNY   85  60  41 SW5       30.03R
*ROCKSPRINGS   SUNNY     88  63  42 SE8       30.06F
*BOERNE STAGE  MOSUNNY   86  59  39 SE6       30.02S
*CASTROVILLE   SUNNY     92  58  32 E6        29.99S HX  90
HONDO          CLOUDY    91  63  39 MISG      29.99F HX  92
*UVALDE        SUNNY     89  65  45 E6        29.98S HX  91
DEL RIO        SUNNY     92  65  40 SE12      29.94F HX  94
LAUGHLIN AFB   SUNNY     92  65  40 S13       29.95S HX  94
CARRIZO SPRGS  SUNNY     91  63  38 E6        29.94S HX  92
$$

TXZ173-191>194-202-209-217>225-228-021800-
CENTRAL AND SOUTH CENTRAL TEXAS

CITY           SKY/WX    TMP DP  RH WIND       PRES   REMARKS
GEORGETOWN     SUNNY     93  61  33 VRB6      29.96F HX  93
AUSTIN/BERGSTM MOSUNNY   91  63  39 S3        29.96S HX  92
AUSTIN/MABRY   SUNNY     93  61  34 VRB5      29.97F HX  93
*AUSTIN/EXEC   SUNNY     91  63  38 CALM      29.97F HX  92
*LAGO VISTA    SUNNY     91  56  30 SE5       30.00F HX  90
SAN MARCOS     SUNNY     91  64  40 S3        29.97F HX  93
NEW BRAUNFELS  SUNNY     93  64  38 S8        29.95F HX  94
RANDOLPH AFB   SUNNY     90  63  41 SE8       29.97S HX  90
PT SAN ANTONIO SUNNY     91  64  40 S9        29.96F HX  92
SAN ANTONIO    MOSUNNY   90  63  40 SE6       29.98S HX  91
STINSON FIELD  SUNNY     93  65  39 VRB6      29.95S HX  95
*PLEASANTON    SUNNY     93  62  35 E8        29.96S HX  93
*LA GRANGE     SUNNY     92  67  42 E6        29.94S HX  95
*GIDDINGS      SUNNY     91  62  37 CALM      29.99F HX  91
*GONZALES      CLOUDY    92  66  42 SE6       29.95S HX  95
$$

TXZ163>164-176>182-195>201-210>213-226-227-235-021800-
SOUTHEAST TEXAS

CITY           SKY/WX    TMP DP  RH WIND       PRES   REMARKS
COLLEGE STN    SUNNY     93  62  35 VRB3      29.95F HX  93
*BRYAN         SUNNY     92  62  36 NE6       29.96F HX  93
*CALDWELL      SUNNY     90  63  40 S3        29.99S HX  90
*CROCKETT      CLOUDY    93  63  36 E6        29.99F HX  94
*BRENHAM       SUNNY     92  65  41 S3        29.95F HX  93
HUNTSVILLE     SUNNY     92  60  34 CALM      29.96F HX  91
CONROE         SUNNY     91  60  35 CALM      29.95F HX  90
HOUSTON BUSH   MOSUNNY   92  64  39 VRB3      29.94S HX  93
HOUSTON HOBBY  MOSUNNY   93  62  35 CALM      29.92F HX  93
*HOUSTON SW AP SUNNY     94  63  35 N7        29.93F HX  95
PEARLAND       SUNNY     95  61  32 E7        29.94F HX  95
HOUSTON HOOKS  SUNNY     93  63  36 SE5       29.94F HX  94
ELLINGTON FLD  MOSUNNY   93  64  38 E3        29.94F HX  95
SUGAR LAND     SUNNY     93  64  38 MISG      29.93S HX  94
*HOUSTON EXEC  SUNNY     91  64  40 N3        29.95F HX  93
*CLEVELAND MUN SUNNY     92  64  39 NW5       29.95F HX  93
*WHARTON       SUNNY     92  61  36 NE5       29.94F HX  92
*COLUMBUS      FAIR      91  66  43 N5        29.94S HX  94
*EAGLE LAKE    SUNNY     93  62  35 E6        29.94S HX  93
$$

TXZ214>216-236>238-021800-
THE UPPER TEXAS COAST

CITY           SKY/WX    TMP DP  RH WIND       PRES   REMARKS
*ORANGE        SUNNY     92  55  28 CALM      29.94S HX  90
PORT ARTHUR    SUNNY     94  65  38 VRB5      29.92S HX  96
GALVESTON      SUNNY     92  69  47 N9        29.93F HX  97
ANGLETON       SUNNY     92  65  40 CALM      29.92F HX  94
*BAY CITY      SUNNY     92  68  45 N5        29.93S HX  95
PALACIOS       MOSUNNY   94  70  45 CALM      29.93S HX 100
$$

TXZ229>234-239>247-021800-
TEXAS COASTAL BEND AND RIO GRANDE PLAINS

CITY           SKY/WX    TMP DP  RH WIND       PRES   REMARKS
VICTORIA       SUNNY     92  68  45 NE9       29.94S HX  96
*BEEVILLE      MOSUNNY   89  73  59 E3        29.94S HX  97
ROCKPORT       PTSUNNY   91  75  59 NE7       29.93R HX 101
*PORT ARANSAS  PTSUNNY   88  75  65 N7        29.92F HX  97
*PORT LAVACA   SUNNY     90  73  57 NE7       29.94S HX  97
*INGLESIDE     SUNNY     91  73  55 NE5       29.92S HX  98
CORPUS CHRISTI MOSUNNY   91  72  53 VRB3      29.93S HX  98
CORPUS NAS     SUNNY     88  76  67 N8        29.93S HX  99
*ROBSTOWN      MOSUNNY   91  72  53 NE7       29.93S HX  98
ALICE          MOSUNNY   90  72  55 VRB3      29.92F HX  97
KINGSVILLE NAS PTSUNNY   93  76  57 VRB5      29.92F HX 105
COTULLA        SUNNY     94  63  35 VRB5      29.94F HX  95
*FAITH RANCH   SUNNY     95  61  31 SE12G18   29.94F HX  95
LAREDO         SUNNY     91  64  40 VRB3      29.95S HX  92
$$

TXZ248>255-021800-
DEEP SOUTH TEXAS

CITY           SKY/WX    TMP DP  RH WIND       PRES   REMARKS
BROWNSVILLE    PTSUNNY   89  73  59 CALM      29.92S HX  97
PORT ISABEL    MOSUNNY   88  73  61 E10       29.92S HX  95
*SOUTH PADRE   MOSUNNY   84  75  74 NE7       29.93S HX  92
HARLINGEN      MOSUNNY   92  73  53 VRB3      29.91S HX 100
*HEBBRONVILLE    N/A     89  64  42 S3        29.95F HX  90
MCALLEN        SUNNY     94  71  47 E8        29.92S HX 101
*WESLACO       SUNNY     92  69  47 E3        29.91F HX  97
FALFURRIAS     MOSUNNY   91  70  49 NE5       29.92S HX  96
EDINBURG       MOSUNNY   91  69  47 E8        29.92S HX  96
*ZAPATA        MOSUNNY   93  61  34 SE3       29.92S HX  93
$$

TXZ213>215-236>238-242>244-246-247-251-254-255-021800-
CMAN STATIONS

STATION/POSITION TIME  TEMP    WIND        PRES    WAVE
                       AIR SEA DIR/SP/G            HT/PER
                 (UTC) (F)     (DEG/KT/KT) (MB)    (FT/S)
$$

GMZ080-GMZ150>470-021800-
OFFSHORE BUOY REPORTS

STATION/POSITION TIME  TEMP    WIND        PRES    WAVE
                       AIR SEA DIR/SP/G            HT/PER
                 (UTC) (F)     (DEG/KT/KT) (MB)    (FT/S)
$$


USA.gov is the U.S. government's official web portal to all federal, state and local government web resources and services.